STARLINK-3204, 49759

Orbit data source: Space-Track

STARLINK-3204, 49759 is a payload satellite owned by SpaceX/Seattle (US) in LEO that was launched on Thu, 02 Dec 2021 UTC via an FALCON 9 launch vehicle from the Air Force Eastern Test Range (AFETR). Payload-class satellites include a variety of spacecraft equipped with specific instruments for various scientific and technological missions. These include communications satellites like Starlink; space stations such as the ISS; scientific satellites like the Hubble; Earth observation satellites from companies like Planet Labs, Umbra, and HawkEye 360; GPS; miniature CubeSats for education and research; and military/defense satellites.

Loading next visibility...
Identifier
49759, 2021-115AM
Orbit
LEO
Country
Flag of USUS
Related business
Manufacturer
SpaceX/Seattle
Mission
Operational Commercial Communications
Bus & Motor
STARLINK, Unknown motor
Mass
290 kg wet, ~270 kg dry
Launch date (UTC)
2021-12-02 (5 years ago)
Launch vehicle
FALCON 9
Launch site
Air Force Eastern Test Range (AFETR)
Object type
Payload
Rocket body
Debris
Shape & HBR
Box + 1 Pan, 10.1 m
Radar Cross Section
13.562 m², Large (>1 m²)

Expand to show TLE details & history
Last TLE update: 2 days ago

TLE from 2 days ago
0 STARLINK-3204
1 49759U 21115AM  26171.02431649  .00000705  00000-0  62385-4 0  9990
2 49759  53.1614  39.6107 0001381  89.9157 270.1993 15.08834320251120
Epoch: 2026-06-20T00:35Z
TLE epoch observation values (Epoch: 2026-06-20T00:35:00.944Z)
Latitude
-0.00001°
Longitude
122.61188°
Altitude
540.649 km
Speed
7.593 km/s
True Right ascension
02h 38m 26s
True Declination
0° 00' 00"
Sunlit
Object was in daylight at epoch
Visualization orbit readout
Latitude
Unknown
Longitude
Unknown
Altitude
Unknown
Speed
Unknown
Apparent Right ascension
Unknown
Apparent Declination
Unknown
Sunlit
N/A
Visualization observer readout
Local Sidereal Time
21:27:46
Azimuth
Unknown
Elevation
Unknown
Doppler factor
Unknown
Orbital elements
Apogee altitude
540.97 km
Perigee altitude
539.059 km
Semi-major axis
6,918.152 km
Eccentricity
0.00014
Inclination
53.1614°
RAAN
39.6107°
Arg. of periapsis
89.9157°
True anomaly
270.18347°
Mean anomaly
270.1993°
Eccentric anomaly
270.19139°
Mean motion
3.77188 °/min
Orbital period
95.44 mins
BSTAR
0.000062385
Loading maneuver chart data...
Computing Atmospheric mass density...
Loading historical data...
Loading historical data...
Loading historical data...
Loading historical data...
Loading historical data...
Loading historical data...
Loading historical data...

Documentation

Showing up to 5 results
|